User: anonymous   Login
Location: Unspecified
(0.0000°N, 0.0000°E)
Time: 19:02:15
(UTC+00:00)
Language:

TBA - TO BE ASSIGNED - Orbit

View from above orbital plane
View from above orbital plane
View from above satellite
View from above satellite

Ground track
Ground track

The orbit is defined by the following mean orbital elements,

1 67965U          26145.01571936 +.00000000 +00000-0 +24859-3 0 00007
2 67965  97.2836 155.0039 0001940 113.0255 247.1193 15.33454470    07
Epoch (UTC): 25 May 2026 00:22:38
Eccentricity: 0.0001940
inclination: 97.2836°
perigee height: 464 km
apogee height: 467 km
right ascension of ascending node: 155.0039°
argument of perigee: 113.0255°
revolutions per day: 15.33454470
mean anomaly at epoch: 247.1193°

The dashed part of the orbit path shows where the satellite is in the earth's shadow,  

DLR